Weather in Sknyatino

Russia / Tver Oblast     57°06′05″N   37°41′20″E
temp.,
°C
wind,
m/s
gust,
m/s
humid.,
%
clouds,
%
prec.,
mm/h
press.,
hPa
HPBL,
m
17 may, tue
tue1700:00+7wnw41097100 1.5 1003775
03:00+7nnw51097100 2.4 1002791
06:00+7nnw51097100 0.9 1002595
09:00+8nnw51194100 1.1 1003733
12:00+9n5893100 0.4 1004815
15:00+12nnw497770 0.6 10041222
18:00+13n695878 0.2 10041442
21:00+7nne398896 0.4 1007229
18 may, wed
wed1800:00+5nne310935 0.1 1008354
03:00+4n3119594 0.1 1010329
06:00+5n410865 0.0 1012482
09:00+10n475914 0.0 10131136
12:00+12n5747100 0.0 10131906
15:00+10nnw5869100 0.3 10141237
18:00+10nnw41059100 0.1 10141642
21:00+6nw387328 0.2 1015230
19 may, thu
thu1900:00+5wsw2877100 0.0 1015199
03:00+5w31088100 0.3 1013438
06:00+6wnw41087100 0.1 1013572
09:00+7n577655 0.5 10141148
12:00+11n575069 0.2 10152012
15:00+10n575373 0.3 10161558
18:00+9n47595 0.1 10171252
21:00+4n007530 0.1 101810
20 may, fri
fri2000:00+3nnw228272 0.0 101918
03:00+1n248125 0.0 102075
06:00+3nne247449 0.0 1020171
09:00+7nne23525 0.0 10201026
12:00+11nne22415 0.0 10191512
15:00+13ne2139100 0.0 10171767
18:00+11ene2247100 0.0 1016654
21:00+7ene2364100 0.0 101551
21 may, sat
sat2100:00+5ese2673100 0.0 1013134
03:00+4e3672100 0.0 1012134
06:00+5e386983 0.0 1012210
09:00+11e45495 0.0 1011884
12:00+13ene453862 0.0 10102008
15:00+14ene343698 0.0 10092415
18:00+13ene445098 0.0 10091620
21:00+7e3873100 0.0 1009159